Time,TemperatureF,DewpointF,PressureIn,WindDirection,WindDirectionDegrees,WindSpeedMPH,WindSpeedGustMPH,Humidity,HourlyPrecipIn,Conditions,Clouds,dailyrainin,SoftwareType,DateUTC
2013-11-02 00:09:00,55.6,40.0,29.59,South,172,0.0,-999.0,56,-99.99,,,0.00,weatherlink.com 1.10,2013-11-02 04:09:00,
2013-11-02 00:24:00,55.7,40.0,29.59,SSE,160,0.0,-999.0,56,-99.99,,,0.00,weatherlink.com 1.10,2013-11-02 04:24:00,
2013-11-02 00:39:00,56.0,40.0,29.59,ESE,123,0.0,-999.0,55,-99.99,,,0.00,weatherlink.com 1.10,2013-11-02 04:39:00,
2013-11-02 00:54:00,56.0,40.0,29.58,SSE,167,0.0,-999.0,55,-99.99,,,0.00,weatherlink.com 1.10,2013-11-02 04:54:00,
2013-11-02 01:09:00,56.0,39.0,29.58,SE,127,0.0,-999.0,54,-99.99,,,0.00,weatherlink.com 1.10,2013-11-02 05:09:00,
2013-11-02 01:24:00,55.9,39.0,29.58,SE,128,0.0,-999.0,54,-99.99,,,0.00,weatherlink.com 1.10,2013-11-02 05:24:00,
2013-11-02 01:39:00,55.9,40.0,29.57,SE,127,0.0,-999.0,55,-99.99,,,0.00,weatherlink.com 1.10,2013-11-02 05:39:00,
2013-11-02 01:54:00,56.0,40.0,29.57,SE,137,2.0,-999.0,55,-99.99,,,0.00,weatherlink.com 1.10,2013-11-02 05:54:00,
2013-11-02 02:09:00,56.0,40.0,29.57,SE,131,0.0,-999.0,55,-99.99,,,0.00,weatherlink.com 1.10,2013-11-02 06:09:00,
2013-11-02 02:24:00,56.0,40.0,29.56,SSE,148,0.0,-999.0,55,-99.99,,,0.00,weatherlink.com 1.10,2013-11-02 06:24:00,
2013-11-02 02:39:00,55.9,40.0,29.56,SE,131,0.0,-999.0,56,-99.99,,,0.00,weatherlink.com 1.10,2013-11-02 06:39:00,
2013-11-02 02:54:00,55.7,40.0,29.56,ESE,113,0.0,-999.0,56,-99.99,,,0.00,weatherlink.com 1.10,2013-11-02 06:54:00,
2013-11-02 03:09:00,55.7,40.0,29.56,ESE,119,0.0,-999.0,56,-99.99,,,0.00,weatherlink.com 1.10,2013-11-02 07:09:00,
2013-11-02 03:24:00,55.7,40.0,29.56,SE,134,0.0,-999.0,57,-99.99,,,0.00,weatherlink.com 1.10,2013-11-02 07:24:00,
2013-11-02 03:39:00,55.6,41.0,29.56,SSE,154,0.0,-999.0,58,-99.99,,,0.00,weatherlink.com 1.10,2013-11-02 07:39:00,
2013-11-02 03:54:00,55.4,41.0,29.57,SW,215,0.0,-999.0,59,-99.99,,,0.00,weatherlink.com 1.10,2013-11-02 07:54:00,
2013-11-02 04:09:00,55.0,41.0,29.57,SE,138,1.0,-999.0,60,-99.99,,,0.00,weatherlink.com 1.10,2013-11-02 08:09:00,
2013-11-02 04:24:00,54.5,41.0,29.57,SE,143,0.0,-999.0,61,-99.99,,,0.00,weatherlink.com 1.10,2013-11-02 08:24:00,
2013-11-02 04:39:00,54.1,42.0,29.57,South,181,0.0,-999.0,63,-99.99,,,0.00,weatherlink.com 1.10,2013-11-02 08:39:00,
2013-11-02 04:54:00,53.6,42.0,29.58,SSW,200,0.0,-999.0,65,-99.99,,,0.00,weatherlink.com 1.10,2013-11-02 08:54:00,
2013-11-02 05:09:00,52.5,42.0,29.58,West,268,3.0,-999.0,68,-99.99,,,0.00,weatherlink.com 1.10,2013-11-02 09:09:00,
2013-11-02 05:24:00,50.8,42.0,29.59,WNW,292,0.0,-999.0,73,-99.99,,,0.00,weatherlink.com 1.10,2013-11-02 09:24:00,
2013-11-02 05:39:00,50.4,43.0,29.60,WNW,292,0.0,-999.0,75,-99.99,,,0.00,weatherlink.com 1.10,2013-11-02 09:39:00,
2013-11-02 05:54:00,49.9,43.0,29.61,WNW,292,0.0,-999.0,76,-99.99,,,0.00,weatherlink.com 1.10,2013-11-02 09:54:00,
2013-11-02 06:09:00,49.9,43.0,29.61,WNW,292,0.0,-999.0,78,-99.99,,,0.00,weatherlink.com 1.10,2013-11-02 10:09:00,
2013-11-02 06:24:00,49.8,43.0,29.62,WNW,292,0.0,-999.0,77,-99.99,,,0.00,weatherlink.com 1.10,2013-11-02 10:24:00,
2013-11-02 06:39:00,49.8,44.0,29.62,WNW,292,0.0,-999.0,79,-99.99,,,0.00,weatherlink.com 1.10,2013-11-02 10:39:00,
2013-11-02 06:54:00,49.6,44.0,29.62,WNW,292,0.0,-999.0,80,-99.99,,,0.00,weatherlink.com 1.10,2013-11-02 10:54:00,
2013-11-02 07:09:00,49.5,43.0,29.63,WNW,292,0.0,-999.0,77,-99.99,,,0.00,weatherlink.com 1.10,2013-11-02 11:09:00,
2013-11-02 07:24:00,49.8,42.0,29.64,WNW,292,0.0,-999.0,74,-99.99,,,0.00,weatherlink.com 1.10,2013-11-02 11:24:00,
2013-11-02 07:39:00,49.8,42.0,29.64,WNW,292,0.0,-999.0,75,-99.99,,,0.00,weatherlink.com 1.10,2013-11-02 11:39:00,
2013-11-02 08:09:00,49.6,42.0,29.64,WNW,292,0.0,-999.0,74,-99.99,,,0.00,weatherlink.com 1.10,2013-11-02 12:09:00,
2013-11-02 08:24:00,49.8,41.0,29.64,WNW,291,0.0,-999.0,73,-99.99,,,0.00,weatherlink.com 1.10,2013-11-02 12:24:00,
2013-11-02 08:39:00,49.8,41.0,29.65,SSE,158,0.0,-999.0,73,-99.99,,,0.00,weatherlink.com 1.10,2013-11-02 12:39:00,
2013-11-02 08:54:00,49.8,41.0,29.65,South,186,0.0,-999.0,73,-99.99,,,0.00,weatherlink.com 1.10,2013-11-02 12:54:00,
2013-11-02 09:09:00,49.5,41.0,29.66,SSW,195,0.0,-999.0,73,-99.99,,,0.00,weatherlink.com 1.10,2013-11-02 13:09:00,
2013-11-02 09:24:00,49.2,42.0,29.66,SW,233,0.0,-999.0,75,-99.99,,,0.00,weatherlink.com 1.10,2013-11-02 13:24:00,
2013-11-02 09:39:00,48.6,42.0,29.67,SW,232,0.0,-999.0,79,-99.99,,,0.00,weatherlink.com 1.10,2013-11-02 13:39:00,
2013-11-02 09:54:00,48.8,43.0,29.67,SW,232,0.0,-999.0,79,-99.99,,,0.00,weatherlink.com 1.10,2013-11-02 13:54:00,
2013-11-02 10:09:00,48.8,43.0,29.67,SW,230,0.0,-999.0,79,-99.99,,,0.00,weatherlink.com 1.10,2013-11-02 14:09:00,
2013-11-02 10:24:00,49.6,43.0,29.68,SSW,196,0.0,-999.0,77,-99.99,,,0.00,weatherlink.com 1.10,2013-11-02 14:24:00,
2013-11-02 10:39:00,49.6,41.0,29.67,SW,224,0.0,-999.0,73,-99.99,,,0.00,weatherlink.com 1.10,2013-11-02 14:39:00,
2013-11-02 10:54:00,49.5,41.0,29.67,SW,224,0.0,-999.0,72,-99.99,,,0.00,weatherlink.com 1.10,2013-11-02 14:54:00,
2013-11-02 11:09:00,49.1,41.0,29.68,SW,226,5.0,-999.0,74,-99.99,,,0.00,weatherlink.com 1.10,2013-11-02 15:09:00,
2013-11-02 11:24:00,48.9,41.0,29.68,SW,226,0.0,-999.0,74,-99.99,,,0.00,weatherlink.com 1.10,2013-11-02 15:24:00,
2013-11-02 11:39:00,49.1,41.0,29.68,ESE,119,0.0,-999.0,74,-99.99,,,0.00,weatherlink.com 1.10,2013-11-02 15:39:00,
2013-11-02 11:54:00,49.1,41.0,29.68,SSW,196,0.0,-999.0,73,-99.99,,,0.00,weatherlink.com 1.10,2013-11-02 15:54:00,
2013-11-02 12:10:00,48.9,40.0,29.68,SW,216,2.0,-999.0,72,-99.99,,,0.00,weatherlink.com 1.10,2013-11-02 16:10:00,
2013-11-02 12:25:00,48.0,39.0,29.69,West,264,0.0,-999.0,71,-99.99,,,0.00,weatherlink.com 1.10,2013-11-02 16:25:00,
2013-11-02 12:40:00,48.2,40.0,29.69,WNW,302,0.0,-999.0,74,-99.99,,,0.00,weatherlink.com 1.10,2013-11-02 16:40:00,
2013-11-02 12:55:00,49.4,40.0,29.69,SW,227,0.0,-999.0,71,-99.99,,,0.00,weatherlink.com 1.10,2013-11-02 16:55:00,
2013-11-02 13:10:00,49.4,40.0,29.69,West,278,3.0,-999.0,70,-99.99,,,0.00,weatherlink.com 1.10,2013-11-02 17:10:00,
2013-11-02 13:25:00,48.8,39.0,29.69,WSW,254,2.0,-999.0,70,-99.99,,,0.00,weatherlink.com 1.10,2013-11-02 17:25:00,
2013-11-02 13:40:00,49.1,40.0,29.69,WSW,247,0.0,-999.0,70,-99.99,,,0.00,weatherlink.com 1.10,2013-11-02 17:40:00,
2013-11-02 13:55:00,49.4,40.0,29.69,NW,306,3.0,-999.0,70,-99.99,,,0.00,weatherlink.com 1.10,2013-11-02 17:55:00,
2013-11-02 14:10:00,48.8,39.0,29.69,WNW,298,3.0,-999.0,70,-99.99,,,0.00,weatherlink.com 1.10,2013-11-02 18:10:00,
2013-11-02 14:25:00,48.0,40.0,29.69,WNW,298,0.0,-999.0,74,-99.99,,,0.00,weatherlink.com 1.10,2013-11-02 18:25:00,
2013-11-02 14:40:00,48.9,40.0,29.69,WNW,294,0.0,-999.0,71,-99.99,,,0.00,weatherlink.com 1.10,2013-11-02 18:40:00,
2013-11-02 14:55:00,49.5,40.0,29.68,WSW,250,0.0,-999.0,69,-99.99,,,0.00,weatherlink.com 1.10,2013-11-02 18:55:00,
2013-11-02 15:10:00,49.4,39.0,29.69,South,191,0.0,-999.0,67,-99.99,,,0.00,weatherlink.com 1.10,2013-11-02 19:10:00,
2013-11-02 15:25:00,48.6,39.0,29.69,SSE,155,0.0,-999.0,70,-99.99,,,0.00,weatherlink.com 1.10,2013-11-02 19:25:00,
2013-11-02 15:40:00,47.7,39.0,29.70,WNW,287,4.0,-999.0,72,-99.99,,,0.00,weatherlink.com 1.10,2013-11-02 19:40:00,
2013-11-02 15:55:00,47.4,39.0,29.70,WNW,302,0.0,-999.0,72,-99.99,,,0.00,weatherlink.com 1.10,2013-11-02 19:55:00,
2013-11-02 16:10:00,47.6,39.0,29.71,WNW,299,3.0,-999.0,72,-99.99,,,0.00,weatherlink.com 1.10,2013-11-02 20:10:00,
2013-11-02 16:25:00,47.7,39.0,29.71,WNW,296,0.0,-999.0,72,-99.99,,,0.00,weatherlink.com 1.10,2013-11-02 20:25:00,
2013-11-02 16:40:00,48.0,39.0,29.72,WNW,294,2.0,-999.0,72,-99.99,,,0.00,weatherlink.com 1.10,2013-11-02 20:40:00,
2013-11-02 16:55:00,46.7,40.0,29.73,WNW,292,6.0,-999.0,76,-99.99,,,0.00,weatherlink.com 1.10,2013-11-02 20:55:00,
2013-11-02 17:10:00,45.1,39.0,29.74,WNW,295,0.0,-999.0,78,-99.99,,,0.01,weatherlink.com 1.10,2013-11-02 21:10:00,
2013-11-02 17:25:00,44.8,39.0,29.75,WNW,292,0.0,-999.0,80,-99.99,,,0.01,weatherlink.com 1.10,2013-11-02 21:25:00,
2013-11-02 17:40:00,45.1,40.0,29.76,SW,232,0.0,-999.0,81,-99.99,,,0.01,weatherlink.com 1.10,2013-11-02 21:40:00,
2013-11-02 17:55:00,45.2,39.0,29.77,SW,232,0.0,-999.0,80,-99.99,,,0.01,weatherlink.com 1.10,2013-11-02 21:55:00,
2013-11-02 18:10:00,45.5,39.0,29.77,North,356,0.0,-999.0,79,-99.99,,,0.01,weatherlink.com 1.10,2013-11-02 22:10:00,
2013-11-02 18:25:00,45.8,39.0,29.77,SSW,202,0.0,-999.0,78,-99.99,,,0.01,weatherlink.com 1.10,2013-11-02 22:25:00,
2013-11-02 18:40:00,45.8,39.0,29.77,SSW,202,0.0,-999.0,77,-99.99,,,0.01,weatherlink.com 1.10,2013-11-02 22:40:00,
2013-11-02 18:55:00,45.2,40.0,29.78,SSW,202,0.0,-999.0,82,-99.99,,,0.01,weatherlink.com 1.10,2013-11-02 22:55:00,
2013-11-02 19:10:00,45.7,39.0,29.79,SSW,198,0.0,-999.0,77,-99.99,,,0.01,weatherlink.com 1.10,2013-11-02 23:10:00,
2013-11-02 19:25:00,46.1,39.0,29.80,SE,128,0.0,-999.0,75,-99.99,,,0.01,weatherlink.com 1.10,2013-11-02 23:25:00,
2013-11-02 19:40:00,46.0,39.0,29.80,SE,128,0.0,-999.0,76,-99.99,,,0.01,weatherlink.com 1.10,2013-11-02 23:40:00,
2013-11-02 19:55:00,46.0,39.0,29.80,SE,128,0.0,-999.0,75,-99.99,,,0.01,weatherlink.com 1.10,2013-11-02 23:55:00,
2013-11-02 20:10:00,46.1,38.0,29.81,SE,128,0.0,-999.0,74,-99.99,,,0.01,weatherlink.com 1.10,2013-11-03 00:10:00,
2013-11-02 20:25:00,46.1,38.0,29.82,SE,128,0.0,-999.0,74,-99.99,,,0.01,weatherlink.com 1.10,2013-11-03 00:25:00,
2013-11-02 20:40:00,46.1,38.0,29.82,SE,136,0.0,-999.0,73,-99.99,,,0.01,weatherlink.com 1.10,2013-11-03 00:40:00,
2013-11-02 20:55:00,46.1,38.0,29.83,SE,136,0.0,-999.0,73,-99.99,,,0.01,weatherlink.com 1.10,2013-11-03 00:55:00,
2013-11-02 21:10:00,46.0,39.0,29.83,SE,136,0.0,-999.0,75,-99.99,,,0.01,weatherlink.com 1.10,2013-11-03 01:10:00,
2013-11-02 21:25:00,45.7,39.0,29.83,SE,136,0.0,-999.0,77,-99.99,,,0.01,weatherlink.com 1.10,2013-11-03 01:25:00,
2013-11-02 21:40:00,45.5,39.0,29.84,SE,136,0.0,-999.0,77,-99.99,,,0.01,weatherlink.com 1.10,2013-11-03 01:40:00,
2013-11-02 21:55:00,45.1,39.0,29.85,SSW,213,0.0,-999.0,80,-99.99,,,0.01,weatherlink.com 1.10,2013-11-03 01:55:00,
2013-11-02 22:10:00,44.5,39.0,29.86,WNW,289,0.0,-999.0,82,-99.99,,,0.01,weatherlink.com 1.10,2013-11-03 02:10:00,
2013-11-02 22:25:00,44.5,39.0,29.86,WNW,292,0.0,-999.0,81,-99.99,,,0.01,weatherlink.com 1.10,2013-11-03 02:25:00,
2013-11-02 22:40:00,44.1,39.0,29.87,WNW,289,0.0,-999.0,82,-99.99,,,0.01,weatherlink.com 1.10,2013-11-03 02:40:00,
2013-11-02 22:55:00,43.9,39.0,29.87,WNW,289,0.0,-999.0,83,-99.99,,,0.01,weatherlink.com 1.10,2013-11-03 02:55:00,
2013-11-02 23:10:00,43.8,39.0,29.88,WNW,289,0.0,-999.0,83,-99.99,,,0.01,weatherlink.com 1.10,2013-11-03 03:10:00,
2013-11-02 23:25:00,43.8,39.0,29.88,WNW,289,0.0,-999.0,84,-99.99,,,0.01,weatherlink.com 1.10,2013-11-03 03:25:00,
2013-11-02 23:40:00,43.6,39.0,29.89,WNW,289,1.0,-999.0,84,-99.99,,,0.01,weatherlink.com 1.10,2013-11-03 03:40:00,
2013-11-02 23:55:00,43.6,39.0,29.89,WNW,289,3.0,-999.0,83,-99.99,,,0.01,weatherlink.com 1.10,2013-11-03 03:55:00,